Skip Page Navigation
NASA JPL Caltech
NASA Logo - Jet Propulsion Laboratory + View the NASA Portal
+ Center for Near-Earth Object Studies
JPL Home Earth Solar System Stars & Galaxies Technology
JPL Solar System Dynamics
BODIES ORBITS EPHEMERIDES TOOLS PHYSICAL DATA DISCOVERY FAQ SITE MAP
JPL Small-Body Database Browser
Search: [ help ]  
17101 Sakenova (1999 JZ38)
Classification: Main-belt Asteroid          SPK-ID: 2017101
Ephemeris | Orbit Diagram | Orbital Elements | Mission Design | Physical Parameters | Discovery Circumstances | Close-Approach Data ]

[ show orbit diagram ]
Orbital Elements at Epoch 2459000.5 (2020-May-31.0) TDB
Reference: JPL 26 (heliocentric ecliptic J2000)
 Element Value Uncertainty (1-sigma)   Units 
e .1105855128252425 3.2277e-08  
a 2.268616614171223 7.6497e-09 au
q 2.017740482489233 7.4626e-08 au
i 5.215875711266789 3.8641e-06 deg
node 285.8466177632354 4.99e-05 deg
peri 133.3205090894648 5.5196e-05 deg
M 229.9480184123586 2.3948e-05 deg
tp 2459451.373346303126
(2021-Aug-24.87334630)
8.3901e-05 TDB
period 1248.073291061256
3.42
6.3127e-06
1.728e-08
d
yr
n .2884445990298265 1.4589e-09 deg/d
Q 2.519492745853213 8.4956e-09 au
  Orbit Determination Parameters
   # obs. used (total)      1733  
   data-arc span      13423 days (36.75 yr)  
   first obs. used      1983-09-17  
   last obs. used      2020-06-17  
   planetary ephem.      DE431  
   SB-pert. ephem.      SB431-N16  
   condition code      0  
   norm. resid. RMS      .48456  
   source      ORB  
   producer      Otto Matic  
   solution date      2020-Jun-23 18:06:15  

Additional Information
 Earth MOID = 1.03461 au 
 Jupiter MOID = 2.74879 au 
 T_jup = 3.601 
[ show covariance matrix ]

Ephemeris | Orbit Diagram | Orbital Elements | Mission Design | Physical Parameters | Discovery Circumstances | Close-Approach Data ]

Physical Parameter Table
Parameter Symbol Value Units Sigma Reference Notes
absolute magnitude H 14.6   n/a MPO473994  
diameter diameter 3.225 km 0.117 urn:nasa:pds:neowise_diameters_albedos::2.0[mainbelt] (http://adsabs.harvard.edu/abs/2011ApJ...741...68M)  
geometric albedo albedo 0.389   0.049 urn:nasa:pds:neowise_diameters_albedos::2.0[mainbelt] (http://adsabs.harvard.edu/abs/2011ApJ...741...68M)  

17101 Sakenova           Discovered 1999 May 10 by the Lincoln Laboratory Near-Earth Asteroid Research Team at Socorro.
Saule Sakenova (b. 1985) was awarded fourth place in the 2003 Intel International Science and Engineering Fair for her earth and space sciences project. She attends the Lycee #105, Almaty, Kazakhstan.
NOTE: some special characters may not display properly (any characters within {} are an attempt to place the proper accent above a character)
Reference: 20040614/MPCPages.arcLast Updated: 2009-12-11

[ show close-approach data ]
Alternate Designations
 1999 JZ38 = 1983 ST = 1990 XT1 = 1997 YT16 
Ephemeris | Orbit Diagram | Orbital Elements | Mission Design | Physical Parameters | Discovery Circumstances | Close-Approach Data ]
ABOUT SSD CREDITS/AWARDS PRIVACY/COPYRIGHT GLOSSARY LINKS
FirstGov 2020-Aug-03 19:16 UT
(server date/time)  
NASA Home Page
Site Manager:   Ryan S. Park
Webmaster  Alan B. Chamberlin